Location: Pasarilla del Rebollar
(40.6790°N, 5.0062°W)
Time: 11:51:14
(UTC+00:00)

ALOS - Pass Details

Date: 22 April 2026
Orbit: 660 x 663 km, 98.1° (Epoch: 20 May)

Event Time Altitude Azimuth Distance (km) Brightness Sun altitude
Rises 02:13:14 0° 28° (NNE) 3,000 6.7 -30.9°
Reaches altitude 10° 02:15:57 10° 44° (NE) 2,082 5.6 -30.6°
Maximum altitude 02:19:24 21° 94° (E) 1,471 4.2 -30.2°
Enters shadow 02:19:40 21° 99° (E) 1,475 4.2 -30.2°
